Tracking 22093 objects as of 18-Jan-2021
HD Live streaming from Space Station
objects crossing your sky now

STARLINK-1510

Track STARLINK-1510 now!
10-day predictions
STARLINK-1510 is classified as:


NORAD ID: 45784
Int'l Code: 2020-038BG
Perigee: 555.9 km
Apogee: 557.8 km
Inclination: 53.0 °
Period: 95.6 minutes
Semi major axis: 6927 km
RCS: Unknown
Launch date: June 13, 2020
Source: United States (US)
Launch site: AIR FORCE EASTERN TEST RANGE (AFETR)
aabbcc
Your satellite tracking list
Your tracking list is empty




NASA's NSSDC Master Catalog

Two Line Element Set (TLE):
1 45784U 20038BG  21017.85632556  .00000779  00000-0  72654-4 0  9993
2 45784  52.9938 342.0698 0001399  76.0334 284.0809 15.05577862 33871
Source of the keplerian elements: AFSPC